Regional Weather Roundup
Issued by NWS Cleveland, OH

Home | Current Version | Previous Version | Graphics & Text | Print | Product List | Glossary On
Versions: 1 2 3 4 5 6 7 8 9 10 11 12 13 14 15 16 17 18 19 20 21 22 23 24 25 26 27 28 29 30 31 32 33 34 35 36 37 38 39 40 41 42 43 44 45 46 47 48 49 50
000
ASUS41 KCLE 300502
RWRCLE
OHIO REGIONAL WEATHER ROUNDUP
NATIONAL WEATHER SERVICE CLEVELAND, OH
100 AM EDT SAT MAY 30 2015

NOTE: "FAIR" INDICATES FEW OR NO CLOUDS BELOW 12,000 FEET WITH NO
SIGNIFICANT WEATHER AND/OR OBSTRUCTIONS TO VISIBILITY.

OHZ001>008-015>018-024>027-034-035-043-044-300600-
   NORTHWEST OHIO

CITY           SKY/WX    TMP DP  RH WIND       PRES   REMARKS
DEFIANCE       CLEAR     74  63  68 S8        30.00F
FINDLAY        PTCLDY    73  65  75 S10       30.03S
TOLEDO EXPRESS CLEAR     73  64  73 S8        30.00S
TOLEDO EXEC    CLEAR     74  63  68 S12       30.01S
LIMA           PTCLDY    72  63  73 S8        30.04S
$$

OHZ009>014-019>023-028>033-038-089-300600-
   NORTHEAST OHIO

CITY           SKY/WX    TMP DP  RH WIND       PRES   REMARKS
CLE-HOPKINS    PTCLDY    75  64  68 S12       30.05F
CLE-LAKEFRONT  PTCLDY    77  63  61 S8        30.02F
CUY CO. ARPT   NOT AVBL
LORAIN-ELYRIA  PTCLDY    74  65  73 SW12      30.04F
ASHTABULA      PTCLDY    71  65  81 S8        30.07F
AKRON-CANTON   MOCLDY    73  64  73 S9        30.09F
WOOSTER        MOCLDY    72  64  76 S9        30.08F
MANSFIELD      PTCLDY    71  63  75 S15       30.07F
YOUNGSTOWN     PTCLDY    71  65  81 S6        30.09F
$$

OHZ042-051>053-060>062-070>072-077>081-300600-
  SOUTHWEST OHIO

CITY           SKY/WX    TMP DP  RH WIND       PRES   REMARKS
CINC-COVINGTON PTCLDY    71  66  84 S6        30.07F
CINC-LUNKEN    PTCLDY    69  66  90 SW6       30.08S
HAMILTON       PTCLDY    70  68  93 CALM      30.07F
DAYTON         MOCLDY    75  67  76 S10       30.07F
WRIGHT-PAT AFB NOT AVBL
DAYTON GENERAL PTCLDY    71  67  87 S7        30.06F
WILMINGTON     PTCLDY    70  64  81 S9        30.09R
$$

OHZ036-037-039>041-045>050-054>059-063>069-073>076-082>088-300600-
  CENTRAL AND SOUTHEAST OHIO

CITY           SKY/WX    TMP DP  RH WIND       PRES   REMARKS
COLUMBUS       MOCLDY    72  65  78 S6        30.08S
OSU AIRPORT    PTCLDY    73  65  75 S9        30.07F
BOLTON FIELD   NOT AVBL
RICKENBACK AFB NOT AVBL
NEWARK         PTCLDY    71  63  75 S6        30.08F
MARION         MOCLDY    73  64  73 S14       30.06F
LANCASTER      PTCLDY    72  65  78 S5        30.09F
ZANESVILLE     NOT AVBL
NEW PHILLY     MOCLDY    76  64  66 S6        30.10S
$$


USA.gov is the U.S. government's official web portal to all federal, state and local government web resources and services.